This demonstration page uses our WeatherBlox Daily Observations layout. Learn more.

Left ArrowRight Arrow

44.89941, -97.11507

Hourly Observations for July 3, 2022

Temp ( °F °C ) Dew Point ( °F °C ) Humidity (%) Winds ( mph kmh ) Pressure ( in mb ) Visibility ( mi km ) Precip ( " mm )
12:53 am 00:53 Clear 68 20 60 15.6 76 76 ESE 7 11 29.99 1016 10 16 0.00 0.00
1:53 am 01:53 Clear 67 19.4 61 16.1 81 81 SE 8 13 29.97 1015 10 16 0.00 0.00
2:53 am 02:53 Clear 67 19.4 61 16.1 81 81 SSE 9 15 29.99 1016 10 16 0.00 0.00
3:53 am 03:53 Mostly Cloudy 67 19.4 61 16.1 81 81 SSE 10 17 29.97 1015 10 16 0.00 0.00
4:35 am 04:35 Cloudy with Nearby Thunderstorms 68 20 61 16.1 78 78 SSE 9 15 29.93 1014 10 16 0.00 0.00
4:53 am 04:53 Cloudy with Strong Thunderstorms 66 18.9 63 17.2 90 90 SSW 12 19 30.00 1016 1 2 0.23 5.84
4:59 am 04:59 Cloudy with Thunderstorms 66 18.9 63 17.2 90 90 SW 14 22 29.99 1016 2 3 0.01 0.25
5:02 am 05:02 Cloudy with Thunderstorms 66 18.9 63 17.2 90 90 SW 13 20 30.00 1016 3 5 0.02 0.51
5:13 am 05:13 Cloudy with Strong Thunderstorms 66 18.9 64 17.8 93 93 SSW 14 22 29.97 1015 2 3 0.13 3.30
5:16 am 05:16 Cloudy with Nearby Thunderstorms 65 18.3 64 17.8 97 97 SSW 16 26 29.99 1015 2 3 0.14 3.56
5:22 am 05:22 Cloudy with Thunderstorms 65 18.3 64 17.8 97 97 S 9 15 29.97 1015 3 4 0.16 4.06
5:29 am 05:29 Cloudy with Thunderstorms 65 18.3 64 17.8 97 97 SSE 9 15 29.97 1015 7 11 0.16 4.06
5:43 am 05:43 Cloudy with Light Rain 65 18.3 63 17.2 93 93 SSE 10 17 29.96 1014 10 16 0.17 4.32
5:53 am 05:53 Mostly Cloudy with Light Rain 65 18.3 64 17.8 97 97 S 7 11 29.97 1015 10 16 0.17 4.32
6:53 am 06:53 Mostly Cloudy with Light Rain 65 18.3 62 16.7 90 90 SSE 12 19 29.98 1015 10 16 0.00 0.00
7:28 am 07:28 Cloudy with Nearby Thunderstorms 65 18.3 63 17.2 93 93 SSE 16 26 29.94 1014 10 16 0.03 0.76
7:53 am 07:53 Cloudy with Nearby Thunderstorms 65 18.3 63 17.2 93 93 SSE 18 30 29.97 1015 10 16 0.03 0.76
8:12 am 08:12 Cloudy 64 17.8 62 16.7 93 93 SE 5 7 29.97 1015 10 16 0.00 0.00
8:45 am 08:45 Cloudy 66 18.9 63 17.2 90 90 SE 12 19 29.95 1014 10 16 0.00 0.00
8:53 am 08:53 Cloudy 66 18.9 63 17.2 90 90 SSE 13 20 29.97 1015 10 16 0.00 0.00
9:16 am 09:16 Cloudy with Nearby Thunderstorms 67 19.4 65 18.3 93 93 SE 13 20 29.94 1014 10 16 0.00 0.00
9:37 am 09:37 Cloudy 69 20.6 66 18.9 90 90 SSE 14 22 29.94 1014 10 16 0.00 0.00
9:53 am 09:53 Mostly Cloudy 70 21.1 66 18.9 87 87 SSE 17 28 29.96 1015 10 16 0.00 0.00
10:53 am 10:53 Sunny 73 22.8 68 20 84 84 S 18 30 29.95 1014 10 16 0.00 0.00
11:53 am 11:53 Mostly Sunny 74 23.3 68 20 82 82 S 16 26 29.95 1014 10 16 0.00 0.00
12:53 pm 12:53 Sunny 77 25 69 20.6 77 77 S 17 28 29.93 1014 10 16 0.00 0.00
1:53 pm 13:53 Sunny 77 25 70 21.1 79 79 S 13 20 29.92 1013 10 16 0.00 0.00
2:53 pm 14:53 Sunny 79 26.1 68 20 69 69 S 16 26 29.91 1013 10 16 0.00 0.00
3:53 pm 15:53 Mostly Cloudy 76 24.4 69 20.6 79 79 SSE 25 41 29.83 1010 10 16 0.00 0.00
4:27 pm 16:27 Partly Cloudy 75 23.9 69 20.6 82 82 N 8 13 29.86 1011 10 16 0.02 0.51
4:53 pm 16:53 Partly Cloudy 75 23.9 69 20.6 82 82 SSW 9 15 29.90 1013 10 16 0.02 0.51
5:53 pm 17:53 Sunny 75 23.9 69 20.6 82 82 Calm 29.88 1012 10 16 0.00 0.00
6:53 pm 18:53 Sunny 74 23.3 65 18.3 74 74 SW 13 20 29.90 1012 10 16 0.00 0.00
7:53 pm 19:53 Mostly Cloudy with Light Rain 69 20.6 64 17.8 84 84 VRB 5 7 29.87 1012 10 16 0.01 0.25
8:53 pm 20:53 Sunny 75 23.9 64 17.8 69 69 SSE 6 9 29.85 1011 10 16 0.00 0.00
9:53 pm 21:53 Clear 72 22.2 64 17.8 76 76 ESE 5 7 29.84 1011 10 16 0.00 0.00
10:53 pm 22:53 Clear 73 22.8 66 18.9 79 79 E 7 11 29.83 1010 10 16 0.00 0.00
11:53 pm 23:53 Clear 73 22.8 66 18.9 79 79 ESE 8 13 29.83 1010 10 16 0.00 0.00

Powered by AerisWeather